Zurück zum Katalog

STARLINK-37554

AktivKommunikationSSO
NORAD 69663·PAYLOAD·🇺🇸 United States

Gestartet Jun 21, 2026 von Vandenberg Space Force Base

Loading…

Nächste Überflüge (nächste 24 Stunden)

TLE

AktuellSource: CelesTrak SupGP

Epoche: Sep 15, 2026, 03:03 UTC

1 69663C 26143Q   26258.12756944 -.00011789  00000+0 -36595-3 0  2583
2 69663  97.2837 301.3580 0001132 102.7192   9.4379 15.33445047    16

Verfolge STARLINK-37554 in Echtzeit mit AllMySat

Download on the App Store